Location: ??????
(55.6361°N, 38.0803°E)
Time: 02:02:28
(UTC+00:00)

SL-16 R/B - Pass Details

Date: 30 March 2020
Orbit: 842 x 846 km, 71.0° (Epoch: 31 May)

Event Time Altitude Azimuth Distance (km) Brightness Sun altitude
Rises 00:07:45 0° 320° (NW) 3,416 5.5 -22.5°
Reaches altitude 10° 00:10:46 10° 305° (NW) 2,476 4.5 -22.2°
Enters shadow 00:12:32 16° 289° (WNW) 2,057 4.0 -22.0°
